Weather observations for the past three days for
Baker Municipal Airport
Imperial (Metric)
Date Time (pdt) Wind (mph) Vis. (mi.) Weather Sky Cond. Temperature (ºF) Relative Humidity Wind Chill (°F) Heat Index (°F) Pressure Precipitation (in)
Air Dwpt 6 hour altimeter (in) sea level (mb) 1 hr 3 hr 6 hr
Max. Min.
15 04:53 Calm 10.00 Fair CLR 52 43 70 52 72% 30.12 1017.0
15 03:53 SW 3 10.00 Fair CLR 54 43 67% 30.11 1016.6
15 02:53 SW 7 10.00 Fair CLR 60.1 43 53% 30.1 1016.0
15 01:53 SW 3 10.00 Fair CLR 63 46 54% 30.1 1015.6
15 00:53 SW 3 10.00 Fair CLR 63 46.9 56% 30.1 1015.8
14 23:53 SW 3 10.00 Fair CLR 66.9 44.1 44% 30.09 1015.6
14 22:53 Vrbl 6 10.00 Fair CLR 66.9 45 97 66.9 45% 30.08 1015.4
14 21:53 W 5 10.00 Fair CLR 75.9 43 31% 77 30.07 1014.8
14 20:53 W 6 10.00 Fair CLR 80.1 42.1 26% 79 30.06 1014.4
14 19:53 W 10 G 22 10.00 Fair CLR 86 39.9 20% 83 30.04 1013.9
14 18:53 N 10 10.00 Fair CLR 91.9 39.9 16% 88 30.01 1012.8
14 17:53 Calm 10.00 Fair CLR 95 48 20% 91 30.01 1012.7
14 16:53 W 5 10.00 Fair CLR 95 48 98.1 84 20% 91 30.02 1013.0
14 15:53 Vrbl 3 10.00 Fair CLR 95 46 19% 91 30.03 1013.3
14 14:53 W 5 10.00 Fair CLR 91.9 48.9 23% 89 30.04 1014.0
14 13:53 NW 5 10.00 Fair CLR 96.1 44.1 17% 92 30.05 1013.7
14 12:53 SW 7 10.00 Fair CLR 91.9 45 20% 88 30.06 1014.3
14 11:53 W 7 10.00 Fair CLR 89.1 48 24% 86 30.06 1014.2
14 10:53 W 7 10.00 Fair CLR 84 46 84 61 27% 82 30.07 1015.0
14 09:53 NW 6 10.00 Fair CLR 81 45 28% 80 30.08 1015.1
14 08:53 W 6 10.00 Fair CLR 75 48 39% 77 30.09 1015.6
14 07:53 Calm 10.00 Fair CLR 68 51.1 55% 30.08 1015.3
14 06:53 Calm 10.00 Fair CLR 66 50 56% 30.08 1014.9
14 05:53 Calm 10.00 Fair CLR 62.1 51.1 67% 30.06 1014.0
14 04:53 Calm 10.00 Fair CLR 64 51.1 72 59 63% 30.04 1013.2
14 03:53 Calm 10.00 Fair CLR 64 48.9 58% 30.04 1013.1
14 02:53 Calm 10.00 Fair CLR 61 48.9 65% 30.04 1013.5
14 01:53 W 5 10.00 Fair CLR 66.9 46.9 49% 30.04 1013.4
14 00:53 Calm 10.00 Fair CLR 66.9 50 55% 30.05 1013.7
13 23:53 S 6 10.00 Fair CLR 72 46.9 41% 30.05 1013.5
13 22:53 S 3 10.00 Fair CLR 72 45 104 71.1 38% 30.03 1013.4
13 21:53 SW 3 10.00 Fair CLR 75.9 46 35% 78 30.03 1013.4
13 20:53 NW 9 10.00 Fair CLR 81 42.1 25% 79 30.02 1013.0
12 16:53 N 12 10.00 Fair CLR 98.1 42.1 99 86 15% 94 29.99 1012.0
12 15:53 NW 14 10.00 Fair CLR 99 43 15% 95 30 1012.6
12 14:53 NW 8 10.00 Fair CLR 98.1 41 14% 94 30.02 1012.9
12 13:53 NW 7 10.00 Fair CLR 95 44.1 17% 91 30.03 1013.5
12 12:53 Vrbl 5 10.00 Fair CLR 93 39.9 16% 89 30.05 1014.3
12 11:53 W 7 10.00 Fair CLR 90 42.1 19% 86 30.07 1014.8
12 10:53 NW 7 10.00 Fair CLR 86 39.9 86 53.1 20% 83 30.09 1015.5
12 09:53 W 6 10.00 Fair CLR 80.1 42.1 26% 79 30.09 1015.9
12 08:53 W 5 10.00 Fair CLR 75 41 29% 77 30.1 1016.3
12 07:53 SW 5 10.00 Fair CLR 70 46 42% 30.1 1016.1
12 06:53 Calm 10.00 Fair CLR 61 46.9 60% 30.1 1016.0
12 05:53 Calm 10.00 Fair CLR 55.9 44.1 65% 30.09 1015.7
Date Time (pdt) Wind (mph) Vis. (mi.) Weather Sky Cond. Air Dwpt Max. Min. Relative Humidity Wind Chill (°F) Heat Index (°F) altimeter (in) sea level (mb) 1 hr 3 hr 6 hr
6 hour
Temperature (ºF) Pressure Precipitation (in)